Zurück zum Katalog

STARLINK-34207

AktivKommunikationVLEO
NORAD 64333·PAYLOAD·🇺🇸 United States

Gestartet Jun 10, 2025 von Cape Canaveral Space Force Station

Loading…

Nächste Überflüge (nächste 24 Stunden)

TLE

AktuellSource: CelesTrak SupGP

Epoche: Sep 15, 2026, 03:02 UTC

1 64333C 25124S   26258.12687500  .00065235  00000+0  23625-2 0  2583
2 64333  42.9993 131.9945 0001479 272.9125 349.3887 15.27549949    16

Verfolge STARLINK-34207 in Echtzeit mit AllMySat

Download on the App Store